Погода в Крагуеваце

Сербия     44°00′35″N   20°54′52″E
темп.,
°C
ветер,
м/с
пор.,
м/с
влажн.,
%
обл.,
%
осадки,
мм/ч
давл.,
гПа
погр.,
м
27 июня, пн
пн2723:00+19юз22680 0.0 101711
02:00+18юз22770 0.0 101715
05:00+17ююз22860 0.0 101815
08:00+23ююз11620 0.0 1018337
11:00+29с12410 0.0 10181687
14:00+32с22320 0.0 10162460
17:00+31с33290 0.0 10162344
20:00+24сз11460 0.0 101611
28 июня, вт
вт2823:00+21ююз11520 0.0 101711
02:00+20юз22580 0.0 101613
05:00+18ю11675 0.0 101711
08:00+25ю125128 0.0 1017300
11:00+32св0135100 0.0 10161404
14:00+33ссв3425100 0.0 10152424
17:00+34ссз34245 0.0 10142688
20:00+26зсз22411 0.0 101421
29 июня, ср
ср2923:00+22ю11507 0.0 101611
02:00+20юв22610 0.0 101614
05:00+18ю22720 0.0 101525
08:00+25юв35530 0.0 1015382
11:00+30юв45350 0.0 10141085
14:00+34юв45261 0.0 10122331
17:00+34вюв66250 0.0 10092283
20:00+24ююв235572 0.3 101228
30 июня, чт
чт3023:00+21ююз22675 0.0 101215
02:00+20ююз22722 0.0 101219
05:00+19ю22770 0.0 101223
08:00+26ююв25505 0.0 1013460
11:00+31ю33355 0.0 10131244
14:00+35ююв21269 0.0 10112658
17:00+36ююв222227 0.0 10103098
20:00+24зюз4459100 2.9 101251
1 июля, пт
пт123:00+20ююз347799 0.2 101361
02:00+19ююз227831 0.2 101423
05:00+18ююз22790 0.0 101426
08:00+26ю23500 0.0 1014335
11:00+33ююв35320 0.0 10141251
14:00+36юв33200 0.0 10123258
17:00+37вюв331972 0.0 10113617
20:00+30ю223880 0.0 101118